Home > Weather > Görlitz > Past weeks

Flag for Germany Weather for the Past 2 Weeks in Görlitz, Saxony, Germany

Now
41 °F

Scattered clouds.


Feels Like: 36 °F
Forecast: 38 / 46 °F
Wind: 7 mph from South

Location: Liberec

Current Time: Feb 9, 2016 at 10:02:26 AM

Latest Report: Feb 9, 2016 at 8:00 AM


Visibility: 22 mi

Pressure: 29.65 "Hg

Humidity: 74%

Dew point: 33 °F

Location of GörlitzLocation

Historic Weather in Görlitz — Graph

°F

Görlitz Temperature Yesterday

Maximum temperature yesterday: 49 °F (at 6:00 PM)
Minimum temperature yesterday: 39 °F (at 5:00 AM)
Average temperature yesterday: 44 °F

High & Low Weather Summary for the Past Weeks

 TemperatureHumidityPressure
High51 °F (Feb 2, 1:00 PM)99% (Jan 25, 9:00 AM)30.37 "Hg (Jan 25, 9:00 AM)
Low31 °F (Feb 5, 8:00 AM)51% (Feb 8, 3:00 PM)29.50 "Hg (Feb 8, 5:00 PM)
Average40 °F79%30.05 "Hg
* Reported Jan 25 8:00 AM — Feb 9 8:00 AM, Görlitz, Weather by CustomWeather, © 2016

Note: Actual official high and low records may vary slightly from our data, if they occured in-between our weather recording intervals... More about our weather records

Advertising

Görlitz Weather History for the Previous 24 Hours

 ConditionsComfort  
Time TempWeatherWind HumidityBarometerVisibility
8:00 AM
Tue, Feb 9
41 °FScattered clouds.7 mph74%29.65 "Hg22 mi
5:00 AM40 °FQuite cool.7 mph70%29.64 "Hg12 mi
3:00 AM41 °FQuite cool.8 mph70%29.63 "Hg12 mi
2:00 AM41 °FQuite cool.7 mph74%29.62 "Hg12 mi
1:00 AM41 °FQuite cool.7 mph72%29.62 "Hg12 mi
11:00 PM
Mon, Feb 8
44 °FQuite cool.7 mph74%29.59 "Hg12 mi
10:00 PM44 °FQuite cool.6 mph79%29.56 "Hg12 mi
9:00 PM46 °FOvercast.5 mph74%29.57 "Hg9 mi
8:00 PM46 °FOvercast.6 mph74%29.56 "Hg12 mi
7:00 PM46 °FLight rain. Overcast.5 mph73%29.55 "Hg9 mi
6:00 PM49 °FCool.5 mph54%29.50 "Hg12 mi
5:00 PM48 °FRain showers. Cloudy.7 mph56%29.50 "Hg12 mi
4:00 PM47 °FLight rain. Overcast.7 mph55%29.56 "Hg14 mi
3:00 PM48 °FPartly sunny.9 mph51%29.56 "Hg22 mi
2:00 PM47 °FPartly sunny.7 mph54%29.59 "Hg25 mi
1:00 PM45 °FOvercast.8 mph58%29.64 "Hg25 mi
12:00 PM44 °FOvercast.9 mph60%29.67 "Hg25 mi
11:00 AM43 °FOvercast.8 mph65%29.70 "Hg25 mi
10:00 AM42 °FScattered clouds.7 mph63%29.75 "Hg22 mi
Weather by CustomWeather, © 2016

See weather overviewHow to use our weather pages